Карточка аэропорта USPP

Внимание!
Информация на этой странице в стадии наполнения.
Если вы не увидели какой-то информации, или заметили неточность - пожалуйста сообщите нам!
Спасибо!
Команда RU-STAFF
Название аэропортаБольшое Савино
Название аэропорта (англ.)Bolshoe Savino
Превышение404 ft. (123.1 m.)
Координаты57°55.866', 56°1.6019999999999'
Высота перехода3700ft
Эшелон переходаQNH>1013:FL50; 1013>QNH>977:FL60; 977>QNH:FL70;
Коды ответчика5610-5617
Зона ОрВДЕкатеринбург РПИ (USSV)
Данные METARUSPP 191100Z 33003MPS 280V020 9999 VCTS SCT046CB 28/16 Q1006 R21/090060 TEMPO VRB19MPS 1100 TSRAGR SQ BKN011CB RMK QFE744
Проноз погоды (TAF)USPP 191053Z 1912/2012 35003G14MPS 9999 BKN016CB TEMPO 1912/1918 31003G20MPS -TSRAGR BECMG 1918/1919 24003G12MPS BKN016 BECMG 2005/2006 36003G14MPS
NOTAMshow/hide NOTAM
AWOS   TABLE

Информация о ВПП

ВПП Длина ВПП (м.) Покрытие Курс ВПП Частота ILS
213204Железобетон211109.9
033204Железобетон31 

Диспетчерские позиции

Позывной Наименование органа УВД Частота
USPP_R_APPПермь-Круг121.700
USPP_TWRПермь-Старт124.000
USPP_APPПермь-Подход127.100



Спутниковое изображение